Home   Weather   Ankara   Past weeks

Flag for Turkey Past Weather in Ankara, Turkey — Yesterday and Last 2 Weeks

Now
61 °F

Sunny.


Feels Like: 61 °F
Forecast: 64 / 87 °F
Wind: 3 mph from North

Location: Ankara / Esenboga

Current Time: Jul 23, 2017 at 7:54:20 am

Latest Report: Jul 23, 2017 at 6:50 am


Visibility: 10 mi

Pressure: 30.07 "Hg (27.13 "Hg at 871m altitude)

Humidity: 55%

Dew Point: 45 °F

Location of AnkaraLocation

Past Weather in Ankara — Graph

°F

Ankara Temperature Yesterday

Maximum temperature yesterday: 88 °F (at 2:20 pm)
Minimum temperature yesterday: 64 °F (at 11:50 pm)
Average temperature yesterday: 76 °F

High & Low Weather Summary for the Past Weeks

 TemperatureHumidityPressure
High93 °F (Jul 13, 4:50 pm)83% (Jul 16, 9:20 pm)30.12 "Hg (Jul 16, 9:20 pm)
Low52 °F (Jul 8, 5:50 am)12% (Jul 13, 3:20 pm)29.77 "Hg (Jul 13, 5:20 pm)
Average75 °F43%29.95 "Hg
* Reported Jul 8 5:20 am — Jul 23 5:20 am, Ankara. Weather by CustomWeather, © 2017

Note: Actual official high and low records may vary slightly from our data, if they occured in-between our weather recording intervals... More about our weather records

Advertising

Ankara Weather History for the Previous 24 Hours

Scroll right to see more
 ConditionsComfort  
Time TempWeatherWind HumidityBarometerVisibility
5:20 am
Sun, Jul 23
55 °FPassing clouds.3 mph63%30.04 "HgN/A
4:20 am57 °FClear.5 mph63%30.04 "Hg10 mi
3:50 am57 °FClear.7 mph63%30.04 "Hg10 mi
3:20 am57 °FClear.8 mph63%30.04 "Hg10 mi
2:50 am57 °FClear.2 mph67%30.04 "Hg10 mi
2:20 am57 °FClear.7 mph67%30.04 "Hg10 mi
1:50 am59 °FClear.6 mph68%30.04 "Hg10 mi
1:20 am63 °FClear.7 mph59%30.04 "Hg10 mi
12:50 am63 °FClear.8 mph59%30.04 "Hg10 mi
12:20 am64 °FClear.8 mph52%30.04 "Hg10 mi
11:50 pm
Sat, Jul 22
64 °FClear.8 mph52%30.04 "Hg10 mi
11:20 pm68 °FClear.9 mph46%30.04 "Hg10 mi
10:50 pm70 °FClear.10 mph43%30.04 "Hg10 mi
10:20 pm70 °FClear.8 mph43%30.04 "Hg10 mi
9:50 pm70 °FClear.9 mph40%30.04 "Hg10 mi
9:20 pm73 °FClear.12 mph38%30.04 "Hg10 mi
8:50 pm75 °FPassing clouds.12 mph34%30.01 "HgN/A
8:20 pm77 °FPassing clouds.15 mph32%30.01 "HgN/A
7:50 pm79 °FPassing clouds.14 mph32%29.98 "HgN/A
7:20 pm82 °FScattered clouds.13 mph28%29.98 "HgN/A
6:50 pm82 °FScattered clouds.13 mph30%29.98 "HgN/A
6:20 pm82 °FScattered clouds.13 mph32%29.98 "HgN/A
5:50 pm84 °FScattered clouds.12 mph31%29.95 "HgN/A
5:20 pm82 °FScattered clouds.12 mph35%29.98 "HgN/A
4:50 pm82 °FScattered clouds.10 mph32%29.98 "HgN/A
4:20 pm81 °FBroken clouds.13 mph42%29.98 "HgN/A
3:50 pm73 °FBroken clouds.18 mph57%29.98 "HgN/A
3:20 pm82 °FBroken clouds.10 mph37%29.98 "HgN/A
2:50 pm88 °FBroken clouds.8 mph27%29.95 "HgN/A
2:20 pm88 °FScattered clouds.7 mph25%29.98 "HgN/A
1:50 pm86 °FScattered clouds.7 mph29%29.98 "HgN/A
1:20 pm84 °FScattered clouds.5 mph31%29.98 "HgN/A
12:50 pm84 °FScattered clouds.5 mph31%29.98 "HgN/A
12:20 pm82 °FScattered clouds.5 mph30%30.01 "HgN/A
11:50 am81 °FScattered clouds.5 mph37%30.01 "HgN/A
11:20 am81 °FScattered clouds.5 mph42%30.01 "HgN/A
10:50 am77 °FScattered clouds.2 mph47%30.01 "HgN/A
9:50 am75 °FScattered clouds.3 mph47%30.01 "HgN/A
9:20 am73 °FScattered clouds.3 mph50%30.01 "HgN/A
8:50 am73 °FScattered clouds.5 mph50%30.01 "HgN/A
8:20 am72 °FScattered clouds.6 mph57%30.01 "HgN/A
7:20 am70 °FScattered clouds.7 mph60%29.98 "HgN/A
Weather by CustomWeather, © 2017

See weather overviewHow to use our weather pages